STARLINK-2354, 47894

Orbit data source: Space-Track

STARLINK-2354, 47894 is a payload satellite owned by SpaceX/Seattle (US) in LEO that was launched on Sun, 14 Mar 2021 UTC via an FALCON 9 launch vehicle from the Air Force Eastern Test Range (AFETR). Payload-class satellites include a variety of spacecraft equipped with specific instruments for various scientific and technological missions. These include communications satellites like Starlink; space stations such as the ISS; scientific satellites like the Hubble; Earth observation satellites from companies like Planet Labs, Umbra, and HawkEye 360; GPS; miniature CubeSats for education and research; and military/defense satellites.

Loading next visibility...
Identifier
47894, 2021-021AL
Orbit
LEO
Country
Flag of USUS
Related business
Manufacturer
SpaceX/Seattle
Mission
Partially operational Commercial Communications
Bus & Motor
STARLINK, Unknown motor
Mass
260 kg wet, ~248 kg dry
Launch date (UTC)
2021-03-14 (5 years ago)
Launch vehicle
FALCON 9
Launch site
Air Force Eastern Test Range (AFETR)
Object type
Payload
Rocket body
Debris
Shape & HBR
Box + 1 Pan, 10.1 m
Radar Cross Section
13.562 m², Large (>1 m²)

Expand to show TLE details & history
Last TLE update: 2 days ago

TLE from 2 days ago
0 STARLINK-2354
1 47894U 21021AL  26171.31934912  .00034432  00000-0  10274-2 0  9999
2 47894  53.1506 150.2891 0001704  65.7863 294.3318 15.34341875291910
Epoch: 2026-06-20T07:39Z
TLE epoch observation values (Epoch: 2026-06-20T07:39:51.763Z)
Latitude
Longitude
126.78774°
Altitude
463.296 km
Speed
7.636 km/s
True Right ascension
10h 01m 09s
True Declination
0° 00' 00"
Sunlit
Object was in daylight at epoch
Visualization orbit readout
Latitude
Unknown
Longitude
Unknown
Altitude
Unknown
Speed
Unknown
Apparent Right ascension
Unknown
Apparent Declination
Unknown
Sunlit
N/A
Visualization observer readout
Local Sidereal Time
21:28:54
Azimuth
Unknown
Elevation
Unknown
Doppler factor
Unknown
Orbital elements
Apogee altitude
464.3 km
Perigee altitude
461.969 km
Semi-major axis
6,841.271 km
Eccentricity
0.00017
Inclination
53.1506°
RAAN
150.2891°
Arg. of periapsis
65.7863°
True anomaly
294.31401°
Mean anomaly
294.3318°
Eccentric anomaly
294.3229°
Mean motion
3.83564 °/min
Orbital period
93.86 mins
BSTAR
0.0010274
Loading maneuver chart data...
Computing Atmospheric mass density...

Documentation

Showing up to 5 results
|